BMCB-36 Weather Reports


time (UTC)temp
C
wind
direction
speed
KPH
gust
KPH
rain 1hr
cm
rain 24hr
cm
rain mn
cm
humidity
%
barometer
mb
20260505222049 8 0 0.0 0.0 0.18 0.74 0.08 10 1009.7
20260505221047 8 0 0.0 0.0 0.15 0.71 0.05 10 1009.7
20260505220048 8 0 0.0 0.0 0.15 0.69 0.03 10 1009.8
20260505214052 8 0 0.0 0.0 0.18 0.64 0.64 10 1009.8
20260505213051 8 0 0.0 0.0 0.15 0.61 0.61 10 1010.0
20260505212051 8 0 0.0 0.0 0.18 0.61 0.61 10 1010.0
20260505211050 8 0 0.0 0.0 0.15 0.56 0.56 10 1010.0
20260505210050 8 0 0.0 0.0 0.18 0.53 0.53 10 1010.1
20260505205049 8 0 0.0 0.0 0.18 0.51 0.51 10 1010.0
20260505204050 8 0 0.0 0.0 0.15 0.48 0.48 10 1010.1
20260505203049 8 0 0.0 0.0 0.15 0.46 0.46 10 1010.1
20260505202050 8 0 0.0 0.0 0.18 0.46 0.46 10 1010.0
20260505200048 9 0 0.0 0.0 0.15 0.41 0.41 10 1009.9
20260505195047 9 0 0.0 0.0 0.15 0.36 0.36 10 1009.9
20260505194049 9 0 0.0 0.0 0.15 0.33 0.33 10 1009.8
20260505192049 9 0 0.0 0.0 0.15 0.30 0.30 10 1009.7
20260505191049 9 0 0.0 0.0 0.15 0.28 0.28 10 1009.7
20260505190051 9 0 0.0 0.0 0.15 0.25 0.25 10 1009.7
20260505183047 9 0 0.0 0.0 0.13 0.18 0.18 10 1009.7
20260505182048 9 0 0.0 0.0 0.10 0.15 0.15 10 1009.7
20260505181048 9 0 0.0 0.0 0.10 0.15 0.15 10 1009.7
20260505180048 9 0 0.0 0.0 0.08 0.13 0.13 10 1009.7
20260505175046 9 0 0.0 0.0 0.08 0.10 0.10 10 1009.7
20260505174047 9 0 0.0 0.0 0.05 0.08 0.08 10 1009.8
20260505173049 10 0 0.0 0.0 0.05 0.08 0.08 10 1009.8
20260505172045 10 0 0.0 0.0 0.05 0.05 0.05 10 1009.8
20260505171047 10 0 0.0 0.0 0.05 0.08 0.05 10 1009.8
20260505170047 10 0 0.0 0.0 0.03 0.05 0.05 10 1009.7
20260505165049 10 0 0.0 0.0 0.03 0.05 0.05 10 1009.8
20260505164046 10 0 0.0 0.0 0.00 0.05 0.03 10 1009.8
20260505163050 10 0 0.0 0.0 0.00 0.05 0.03 10 1009.8
20260505162046 10 0 0.0 0.0 0.00 0.05 0.03 10 1009.8
20260505161049 10 0 0.0 0.0 0.00 0.05 0.03 10 1009.9
20260505153044 10 0 0.0 0.0 0.00 0.05 0.03 10 1009.9
20260505152046 10 0 0.0 0.0 0.00 0.05 0.03 10 1010.0
20260505151044 10 0 0.0 0.0 0.00 0.05 0.03 10 1010.0
20260505123045 11 0 0.0 0.0 0.00 0.23 0.00 10 1010.5
20260505122045 11 0 0.0 0.0 0.00 0.23 0.00 10 1010.6
20260505121044 11 0 0.0 0.0 0.00 0.23 0.00 10 1010.7
20260505120047 11 0 0.0 0.0 0.00 0.23 0.00 10 1010.7
20260505115046 11 0 0.0 0.0 0.00 0.23 0.00 10 1010.7
20260505114049 11 0 0.0 0.0 0.00 0.23 0.00 10 1010.7
20260505113046 11 0 0.0 0.0 0.00 0.23 0.00 10 1010.7
20260505112047 11 0 0.0 0.0 0.00 0.23 0.00 10 1010.8
20260505111048 11 0 0.0 0.0 0.00 0.23 0.00 10 1010.9
20260505101047 12 0 0.0 0.0 0.00 0.23 0.00 99 1010.9
20260505100044 12 0 0.0 0.0 0.00 0.23 0.00 98 1010.9
20260505095047 12 0 0.0 0.0 0.00 0.23 0.00 99 1010.8
20260505094046 12 0 0.0 0.0 0.00 0.23 0.00 10 1010.9
20260505091047 12 0 0.0 0.0 0.00 0.23 0.00 99 1010.9
20260505090045 12 0 0.0 0.0 0.00 0.23 0.00 98 1011.1
20260505084044 12 0 0.0 0.0 0.00 0.23 0.00 99 1011.1
20260505083046 12 0 0.0 0.0 0.00 0.23 0.00 99 1011.1
20260505082046 12 0 0.0 0.0 0.00 0.23 0.00 10 1011.2
20260505081045 12 0 0.0 0.0 0.00 0.23 0.00 10 1011.2
20260505080045 12 0 0.0 0.0 0.00 0.23 0.00 10 1011.2
20260505074046 12 0 0.0 0.0 0.00 0.23 0.00 10 1011.3
20260505073044 12 0 0.0 0.0 0.00 0.23 0.00 10 1011.3
20260505072046 11 0 0.0 0.0 0.00 0.23 0.00 10 1011.3
20260505071045 11 0 0.0 0.0 0.00 0.23 0.00 10 1011.4
20260505065045 11 0 0.0 0.0 0.00 0.23 0.00 10 1011.5
20260505064043 11 0 0.0 0.0 0.00 0.23 0.00 10 1011.5
20260505063043 11 0 0.0 0.0 0.00 0.23 0.00 10 1011.5
20260505062044 11 0 0.0 0.0 0.00 0.23 0.00 10 1011.5
20260505061044 11 0 0.0 0.0 0.00 0.23 0.00 10 1011.5
20260505060045 11 0 0.0 0.0 0.00 0.23 0.00 10 1011.7
20260505055046 11 0 0.0 0.0 0.00 0.23 0.00 10 1011.7
20260505054048 11 0 0.0 0.0 0.00 0.23 0.00 10 1011.6
20260505053043 11 0 0.0 0.0 0.00 0.23 0.00 10 1011.6
20260505052042 11 0 0.0 0.0 0.00 0.23 0.00 10 1011.6
20260505051047 11 0 0.0 0.0 0.00 0.23 0.00 10 1011.6
20260505041042 11 0 0.0 0.0 0.00 0.23 0.00 10 1011.6
20260505035046 11 0 0.0 0.0 0.00 0.23 0.00 10 1011.7
20260505034044 11 0 0.0 0.0 0.00 0.23 0.00 10 1011.7
20260505033046 11 0 0.0 0.0 0.00 0.23 0.00 10 1011.8
20260505031044 11 0 0.0 0.0 0.00 0.23 0.00 10 1012.0
20260505030044 11 0 0.0 0.0 0.00 0.23 0.00 10 1012.1
20260505025045 11 0 0.0 0.0 0.00 0.23 0.00 10 1012.1
20260505024045 11 0 0.0 0.0 0.00 0.23 0.00 10 1012.1
20260505022045 11 0 0.0 0.0 0.00 0.23 0.00 10 1012.3
20260505020047 11 0 0.0 0.0 0.00 0.23 0.00 10 1012.3
20260505013042 11 0 0.0 0.0 0.00 0.23 0.00 10 1012.3
20260505012044 11 0 0.0 0.0 0.00 0.23 0.00 10 1012.3
20260505011044 11 0 0.0 0.0 0.00 0.23 0.00 10 1012.4
20260505010045 11 0 0.0 0.0 0.00 0.23 0.00 10 1012.5
20260505005048 11 0 0.0 0.0 0.00 0.23 0.00 10 1012.6
20260505004044 11 0 0.0 0.0 0.00 0.23 0.00 99 1012.8
20260505003045 11 0 0.0 0.0 0.00 0.23 0.00 99 1012.9
20260505002043 11 0 0.0 0.0 0.00 0.23 0.00 99 1013.0
20260505001047 11 0 0.0 0.0 0.00 0.23 0.00 99 1012.9
20260505000047 11 0 0.0 0.0 0.00 0.23 0.00 99 1012.9
20260504235047 11 0 0.0 0.0 0.00 0.23 0.00 99 1013.0
20260504233046 11 0 0.0 0.0 0.00 0.23 0.00 98 1013.2
20260504232048 11 0 0.0 0.0 0.00 0.23 0.00 98 1013.2
20260504231049 11 0 0.0 0.0 0.00 0.23 0.00 98 1013.4
20260504230047 11 0 0.0 0.0 0.00 0.23 0.00 98 1013.4
20260504225049 11 0 0.0 0.0 0.00 0.23 0.00 98 1013.5
20260504224049 11 0 0.0 0.0 0.00 0.23 0.00 98 1013.5
20260504223047 11 0 0.0 0.0 0.00 0.23 0.00 98 1013.6